This is the latest recevied weather packets stored in our database for station/object NR6G-5. If no packets are shown the sender has not sent any weather packets the latest 1 day(s).
| Time | Temp. | Humidity | Pressure | Rain* | Wind** | Luminosity | Snow |
|---|---|---|---|---|---|---|---|
| 1778052716 | 12.78° C | 85% | 1016.9 hPa | 0 mm | 1.79 m/s, 72° | - | - |
| 1778052415 | 12.78° C | 85% | 1016.8 hPa | 0 mm | 1.34 m/s, 72° | - | - |
| 1778052115 | 12.22° C | 86% | 1016.8 hPa | 0 mm | 1.34 m/s, 72° | - | - |
| 1778051818 | 12.22° C | 85% | 1016.8 hPa | 0 mm | 1.79 m/s, 69° | - | - |
| 1778051516 | 12.22° C | 85% | 1016.8 hPa | 0 mm | 1.79 m/s, 68° | - | - |
| 1778051215 | 12.22° C | 85% | 1016.6 hPa | 0 mm | 1.79 m/s, 69° | - | - |
| 1778050916 | 12.22° C | 86% | 1016.7 hPa | 0 mm | 2.24 m/s, 70° | - | - |
| 1778050618 | 12.22° C | 86% | 1016.7 hPa | 0 mm | 2.68 m/s, 67° | - | - |
| 1778050015 | 12.22° C | 86% | 1016.6 hPa | 0 mm | 2.24 m/s, 67° | - | - |
| 1778049715 | 12.22° C | 87% | 1016.4 hPa | 0 mm | 1.79 m/s, 69° | - | - |
| 1778049415 | 12.22° C | 87% | 1016.4 hPa | 0 mm | 1.79 m/s, 69° | - | - |
| 1778049117 | 12.22° C | 86% | 1016.4 hPa | 0 mm | 1.34 m/s, 70° | - | - |
| 1778048727 | 12.22° C | 86% | 1016.3 hPa | 0 mm | 1.79 m/s, 69° | - | - |
| 1778047829 | 12.22° C | 87% | 1016.2 hPa | 0 mm | 1.34 m/s, 71° | - | - |
| 1778047528 | 12.22° C | 87% | 1016.2 hPa | 0 mm | 1.79 m/s, 69° | - | - |
| 1778047227 | 12.22° C | 87% | 1016.1 hPa | 0 mm | 1.79 m/s, 69° | - | - |
| 1778046327 | 12.22° C | 86% | 1016 hPa | 0 mm | 1.79 m/s, 68° | - | - |
| 1778045427 | 12.78° C | 85% | 1016 hPa | 0 mm | 1.34 m/s, 71° | - | - |
| 1778044827 | 12.78° C | 85% | 1015.9 hPa | 0 mm | 1.34 m/s, 79° | - | - |
| 1778041063 | 13.33° C | 84% | 1015.3 hPa | 0 mm | 1.34 m/s, 70° | - | - |
| 1778040763 | 13.89° C | 84% | 1015.3 hPa | 0 mm | 1.79 m/s, 66° | - | - |
| 1778040463 | 13.89° C | 84% | 1015.2 hPa | 0 mm | 1.79 m/s, 69° | - | - |
| 1778040164 | 13.89° C | 85% | 1015.2 hPa | 0 mm | 1.34 m/s, 71° | - | - |
| 1778039863 | 13.89° C | 85% | 1015 hPa | 0 mm | 1.79 m/s, 65° | - | - |
| 1778039563 | 13.89° C | 86% | 1015.1 hPa | 0 mm | 1.34 m/s, 64° | - | - |
* Rain latest hour (hover to see other rain measurements)
** Current wind speed in m/s (hover to see current wind gust speed)